Regional Weather Roundup
Issued by NWS

Home | Current Version | Previous Version | Graphics & Text | Print | Product List | Glossary On
Versions: 1 2 3 4 5 6 7 8 9 10 11 12 13 14 15 16 17 18 19 20 21 22 23 24 25 26 27 28 29 30 31 32 33 34 35 36 37 38 39 40 41 42 43 44 45 46 47 48 49 50
000
ASUS45 KSLC 041610
RWRUT

UTAH REGIONAL WEATHER ROUNDUP
NATIONAL WEATHER SERVICE SALT LAKE CITY UT
900 AM MST WED MAR 04 2015

UTZ001>011-023>025-041700-

NORTHERN UTAH

CITY           SKY/WX    TMP DP  RH WIND       PRES   REMARKS
BRIGHAM CITY   SUNNY     26  16  65 CALM      30.18R
HILL AFB       NOT AVBL
LOGAN          SUNNY     26  17  68 CALM      30.17R
OGDEN          SUNNY     30  18  60 CALM      30.16R
PROVO AIRPORT  MOSUNNY   28  21  74 SE6       30.17R WCI  22
SALT LAKE CITY MOSUNNY   30  21  69 S6        30.17R WCI  24
VERNAL         SUNNY     23  11  60 E5        30.09R WCI  17
WENDOVER       SUNNY     30  16  55 E7        30.18R WCI  23
HEBER CITY     SUNNY     18  12  79 CALM      30.13R THUNDER
WEST JORDAN    CLOUDY    28  18  64 CALM      30.17R

$$

UTZ012>022-026-027-041700-

SOUTHERN/CENTRAL UTAH

CITY           SKY/WX    TMP DP  RH WIND       PRES   REMARKS
BLANDING       SUNNY     28  17  65 W5        30.08R WCI  23
BRYCE CANYON   SUNNY      5   2  87 W3        30.05R
CEDAR CITY     SUNNY     16  12  84 NE3       30.11R
DELTA          SUNNY     27  21  78 S3        30.17R
HANKSVILLE     SUNNY     32  21  64 S3        30.14R
MILFORD        SUNNY     22  18  85 CALM      30.15R
MOAB/CYNLANDS  SUNNY     32  19  58 NW5       30.08R WCI  27
PRICE          SUNNY     28  12  51 NW13      30.06R WCI  17
ST GEORGE      SUNNY     37  25  60 S5        30.16R WCI  34
KANAB          SUNNY     32  14  47 N9        30.13R WCI  24

$$

REGIONAL REPORTS     COLORADO/ARIZONA

CITY           SKY/WX    TMP DP  RH WIND       PRES   REMARKS
CRAIG, CO      CLOUDY    10   6  84 CALM      30.07R FOG
GRAND JUNCTION SUNNY     30  18  60 CALM      30.08R
RIFLE          SUNNY     25   8  48 CALM      30.07R
MONTROSE       CLOUDY    28  16  60 N6        30.07R WCI  22
CORTEZ         MOSUNNY   30  16  56 NW8       30.01R WCI  22
PAGE, AZ       PTSUNNY   36  15  42 NW5       30.09R WCI  32
GRAND CANYON   SUNNY     25  24  96 CALM      30.03R
KINGMAN        SUNNY     39  29  67 NE10      30.08R WCI  32
FLAGSTAFF      SUNNY     25  20  81 VRB7      30.00R WCI  17

$$

REGIONAL REPORTS    NEVADA/IDAHO/WYOMING

CITY           SKY/WX    TMP DP  RH WIND       PRES   REMARKS
LAS VEGAS, NV  SUNNY     47  14  26 N13G21    30.12R
ELY            SUNNY     13   8  81 S9        30.15R WCI   1
ELKO           SUNNY     22  15  75 CALM      30.19R
POCATELLO, ID  SUNNY     21  14  74 CALM      30.21R
BURLEY         SUNNY     26  12  55 SW7       30.20R WCI  18
EVANSTON, WY   SUNNY     17  13  84 SW8       30.04R WCI   7
ROCK SPRINGS   CLOUDY     4   2  91 CALM      30.05R

$$



USA.gov is the U.S. government's official web portal to all federal, state and local government web resources and services.